Tarbes, France

6:14 PM CET on February 25, 2017 (GMT +0100)
Lourdes-Pyrenees

Weather History for LFBT - September, 2013

Change the Weather History Date:

Tuesday, September 17, 2013

  Actual Average Record
Temperature  
Mean Temperature 60 °F -  
Max Temperature 66 °F 67 °F 84 °F (2003)
Min Temperature 53 °F 49 °F 41 °F (2004)
Degree Days  
Heating Degree Days 6    
Growing Degree Days 10 (Base 50)    
Moisture  
Dew Point 53 °F    
Average Humidity 83    
Maximum Humidity 94    
Minimum Humidity 60    
Precipitation  
Precipitation 0.04 in - - ()
Sea Level Pressure  
Sea Level Pressure 30.05 in    
Wind  
Wind Speed 9 mph ()    
Max Wind Speed 16 mph    
Max Gust Speed -    
Visibility 6.1 miles    
Events Rain    
Averages and records for this station are not official NWS values.
T = Trace of Precipitation, MM = Missing Value Source: Averaged Metar Reports

Daily Weather History Graph

Daily Weather History Graph

Search for Another Location

Airport or City:

Trip Planner

Search our weather history database for the weather conditions in past years. The results will help you decide how hot, cold, wet, or windy it might be!

Date:

Astronomy

Sep. 17, 2013 Rise Set
Actual Time 7:41 AM CEST 8:06 PM CEST
Civil Twilight 7:13 AM CEST 8:34 PM CEST
Nautical Twilight 6:39 AM CEST 9:08 PM CEST
Astronomical Twilight 6:04 AM CEST 9:42 PM CEST
Moon 6:45 PM CEST (9/17) 5:16 AM CEST (9/17)
Length of Visible Light 13h 21m
Length of Day
12h 24m
Waxing Gibbous, 94% of the Moon is Illuminated
Sep 17
Waxing Gibbous
Sep 19
Full
Sep 27
Last Quarter
Oct 5
New
Oct 12
First Quarter

Hourly Weather History & Observations

Time (CEST) Temp. Dew Point Humidity Pressure Visibility Wind Dir Wind Speed Gust Speed Precip Events Conditions
12:00 AM 55.4 °F 53.6 °F 94% 30.04 in 5.6 mi West 11.5 mph - N/A   Drizzle
12:30 AM 55.4 °F 53.6 °F 94% 30.04 in 6.2 mi West 9.2 mph - N/A   Overcast
1:00 AM 57.2 °F 53.6 °F 88% 30.04 in 6.2 mi WSW 8.1 mph - N/A   Overcast
1:30 AM 55.4 °F 53.6 °F 94% 30.06 in 5.6 mi WNW 11.5 mph - N/A   Mostly Cloudy
2:00 AM 55 °F 53 °F 90% 30.06 in 22 mi West 8.1 mph - -   Clear
2:00 AM 55.4 °F 53.6 °F 94% 30.04 in 6.2 mi West 8.1 mph - N/A   Overcast
2:30 AM 55.4 °F 53.6 °F 94% 30.04 in 6.2 mi WSW 10.4 mph - N/A   Overcast
3:00 AM 55.4 °F 51.8 °F 88% 30.04 in 6.2 mi SW 10.4 mph - N/A   Overcast
3:30 AM 55.4 °F 51.8 °F 88% 30.04 in 6.2 mi WSW 6.9 mph - N/A   Overcast
4:00 AM 55.4 °F 50.0 °F 82% 30.04 in 6.2 mi WSW 5.8 mph - N/A   Overcast
4:30 AM 55.4 °F 50.0 °F 82% 30.01 in 6.2 mi West 4.6 mph - N/A   Overcast
5:00 AM 55.4 °F 51.8 °F 88% 30.04 in 6.2 mi WNW 9.2 mph - N/A   Overcast
5:30 AM 55.4 °F 51.8 °F 88% 30.04 in 6.2 mi WNW 9.2 mph - N/A   Overcast
6:00 AM 55.4 °F 51.8 °F 88% 30.04 in 6.2 mi West 11.5 mph - N/A   Overcast
6:30 AM 53.6 °F 51.8 °F 94% 30.04 in 6.2 mi WSW 9.2 mph - N/A   Mostly Cloudy
7:00 AM 53.6 °F 51.8 °F 94% 30.04 in 6.2 mi WSW 8.1 mph - N/A   Overcast
7:30 AM 53.6 °F 51.8 °F 94% 30.04 in 3.7 mi West 9.2 mph - N/A Rain Light Rain
8:00 AM 54 °F 52 °F 91% 30.06 in 37 mi WSW 9.2 mph - -   Clear
8:00 AM 53.6 °F 51.8 °F 94% 30.04 in 6.2 mi WSW 9.2 mph - N/A   Overcast
8:30 AM 55.4 °F 51.8 °F 88% 30.06 in 6.2 mi WSW 8.1 mph - N/A   Overcast
9:00 AM 55.4 °F 51.8 °F 88% 30.06 in 6.2 mi WSW 6.9 mph - N/A   Overcast
9:30 AM 55.4 °F 53.6 °F 94% 30.06 in 6.2 mi WSW 9.2 mph - N/A   Mostly Cloudy
10:00 AM 55.4 °F 53.6 °F 94% 30.06 in 6.2 mi WSW 8.1 mph - N/A   Overcast
10:30 AM 57.2 °F 53.6 °F 88% 30.06 in 6.2 mi West 6.9 mph - N/A   Mostly Cloudy
11:00 AM 57.2 °F 53.6 °F 88% 30.06 in 6.2 mi West 6.9 mph - N/A   Overcast
11:30 AM 60.8 °F 53.6 °F 77% 30.06 in 6.2 mi West 9.2 mph - N/A   Overcast
12:00 PM 60.8 °F 53.6 °F 77% 30.06 in 6.2 mi West 9.2 mph - N/A   Mostly Cloudy
12:30 PM 62.6 °F 51.8 °F 68% 30.06 in 6.2 mi WNW 9.2 mph - N/A   Mostly Cloudy
1:00 PM 59.0 °F 55.4 °F 88% 30.06 in 6.2 mi NW 9.2 mph - N/A   Overcast
1:30 PM 62.6 °F 55.4 °F 77% 30.06 in 6.2 mi NW 8.1 mph - N/A   Mostly Cloudy
2:00 PM 64 °F 54 °F 60% 30.05 in 34 mi West 10.4 mph - -   Clear
2:00 PM 64.4 °F 53.6 °F 68% 30.06 in 6.2 mi West 10.4 mph - N/A   Mostly Cloudy
2:30 PM 62.6 °F 53.6 °F 72% 30.06 in 6.2 mi WNW 10.4 mph - N/A   Mostly Cloudy
3:00 PM 60.8 °F 57.2 °F 88% 30.06 in 6.2 mi WNW 13.8 mph - N/A   Mostly Cloudy
3:30 PM 62.6 °F 55.4 °F 77% 30.06 in 6.2 mi West 12.7 mph - N/A   Mostly Cloudy
4:00 PM 64.4 °F 51.8 °F 64% 30.06 in 6.2 mi WSW 13.8 mph - N/A   Mostly Cloudy
4:30 PM 64.4 °F 53.6 °F 68% 30.06 in 6.2 mi WNW 11.5 mph - N/A   Mostly Cloudy
5:00 PM 64.4 °F 53.6 °F 68% 30.04 in 6.2 mi WNW 11.5 mph - N/A   Mostly Cloudy
5:30 PM 64.4 °F 53.6 °F 68% 30.04 in 6.2 mi WNW 16.1 mph - N/A   Overcast
6:00 PM 62.6 °F 53.6 °F 72% 30.06 in 6.2 mi West 11.5 mph - N/A   Mostly Cloudy
6:30 PM 62.6 °F 51.8 °F 68% 30.06 in 6.2 mi West 15.0 mph - N/A   Scattered Clouds
7:00 PM 62.6 °F 53.6 °F 72% 30.06 in 6.2 mi West 11.5 mph - N/A   Scattered Clouds
7:30 PM 60.8 °F 53.6 °F 77% 30.06 in 6.2 mi West 10.4 mph - N/A   Unknown
8:00 PM 60 °F 54 °F 74% 30.06 in 37 mi West 11.5 mph - -   Clear
8:00 PM 60.8 °F 53.6 °F 77% 30.06 in 6.2 mi West 11.5 mph - N/A   Overcast
8:30 PM 59.0 °F 53.6 °F 82% 30.06 in 6.2 mi West 6.9 mph - N/A   Overcast
9:00 PM 59.0 °F 53.6 °F 82% 30.06 in 6.2 mi West 8.1 mph - N/A   Overcast
9:30 PM 59.0 °F 53.6 °F 82% 30.06 in 6.2 mi West 5.8 mph - N/A   Overcast
10:00 PM 59.0 °F 53.6 °F 82% 30.09 in 6.2 mi WSW 5.8 mph - N/A   Overcast
10:30 PM 59.0 °F 53.6 °F 82% 30.09 in 6.2 mi SW 4.6 mph - N/A   Overcast
11:00 PM 59.0 °F 53.6 °F 82% 30.06 in 6.2 mi WSW 5.8 mph - N/A   Overcast
11:30 PM 59.0 °F 53.6 °F 82% 30.06 in 6.2 mi Variable 2.3 mph - N/A   Mostly Cloudy